Regional Weather Roundup
Issued by NWS

Home | Current Version | Previous Version | Graphics & Text | Print | Product List | Glossary On
Versions: 1 2 3 4 5 6 7 8 9 10 11 12 13 14 15 16 17 18 19 20 21 22 23 24 25 26 27 28 29 30 31 32 33 34 35 36 37 38 39 40 41 42 43 44 45 46 47 48 49 50
000
ASUS43 KLMK 210010
RWRKY
KENTUCKY REGIONAL WEATHER ROUNDUP
NATIONAL WEATHER SERVICE LOUISVILLE KY
700 PM EST MON FEB 20 2017

NOTE "FAIR" INDICATES FEW OR NO CLOUDS BELOW 12,000 FEET
WITH NO SIGNIFICANT WEATHER AND/OR OBSTRUCTIONS TO VISIBILITY.

KYZ001>023-026-027-061>063-070>075-210100-
WESTERN AND SOUTH CENTRAL KENTUCKY

CITY           SKY/WX    TMP DP  RH WIND       PRES   REMARKS
PADUCAH        CLOUDY    66  50  56 SE7       30.00S
HENDERSON      CLOUDY    55  46  71 SE3       30.02R
OWENSBORO      PTCLDY    66  48  52 SE6       30.04S
HOPKINSVILLE   CLOUDY    67  49  51 CALM      30.05R
BOWLING GREEN  CLOUDY    62  45  53 CALM      30.06S
GLASGOW        PTCLDY    63  46  52 CALM      30.07S
$$

KYZ024-025-028>034-038-045-046-053-210100-
NORTH CENTRAL KENTUCKY

CITY           SKY/WX    TMP DP  RH WIND       PRES   REMARKS
LOUISVILLE/SDF CLOUDY    66  42  41 SE6       30.06S
LOUISVILLE/LOU CLOUDY    69  43  38 E5        30.06F
FORT KNOX      MOCLDY    65  45  48 E5        30.04F
$$

KYZ035>037-039>044-047>052-055>060-089>105-210100-
NORTHEAST KENTUCKY

CITY           SKY/WX    TMP DP  RH WIND       PRES   REMARKS
LEXINGTON      PTCLDY    65  37  35 E6        30.10F
COVINGTON      CLOUDY    59  47  64 E5        30.11S
FRANKFORT      PTCLDY    61  44  53 E6        30.08F
$$

KYZ054-064>069-076>088-106>120-210100-
SOUTHEAST KENTUCKY

CITY           SKY/WX    TMP DP  RH WIND       PRES   REMARKS
JACKSON        MOCLDY    64  34  32 NE3       30.13R
LONDON         CLOUDY    60  36  40 NE3       30.11F
SOMERSET       MOCLDY    61  39  44 CALM      30.10F
MIDDLESBORO    CLOUDY    57  44  61 CALM      30.13S
MONTICELLO     CLOUDY    61  46  57 N13       30.11S
$$





USA.gov is the U.S. government's official web portal to all federal, state and local government web resources and services.